• en Belgique
  • Liste des pays
  • À 7 jours
  • Température de l'eau
  • Carte satellitaire
  • Carte météo
  • Widgets météo
  • user-avatar
    Se connecter

    Météo par heure à Lezhё

    Ce jour, 23 Août, Mercredi

    Heure Température Précipitation Vent Pression Humidité
    00:00 +17°C° 0 mm 3 m/s 738 mmHg 59%
    01:00 +16°C° 0 mm 3 m/s 738 mmHg 61%
    02:00 +16°C° 0 mm 3 m/s 738 mmHg 61%
    03:00 +16°C° 0 mm 3 m/s 738 mmHg 62%
    04:00 +16°C° 0 mm 3 m/s 738 mmHg 63%
    05:00 +17°C° 0 mm 3 m/s 738 mmHg 58%
    06:00 +19°C° 0 mm 3 m/s 738 mmHg 53%
    07:00 +21°C° 0 mm 2 m/s 738 mmHg 48%
    08:00 +24°C° 0 mm 2 m/s 739 mmHg 42%
    09:00 +26°C° 0 mm 2 m/s 739 mmHg 36%
    10:00 +28°C° 0 mm 1 m/s 739 mmHg 29%
    11:00 +29°C° 0 mm 2 m/s 739 mmHg 27%
    12:00 +30°C° 0 mm 3 m/s 739 mmHg 26%
    13:00 +31°C° 0 mm 3 m/s 739 mmHg 24%
    14:00 +30°C° 0 mm 4 m/s 739 mmHg 26%
    15:00 +30°C° 0 mm 4 m/s 738 mmHg 27%
    16:00 +30°C° 0 mm 4 m/s 738 mmHg 29%
    17:00 +27°C° 0 mm 3 m/s 738 mmHg 37%
    18:00 +24°C° 0 mm 2 m/s 738 mmHg 46%
    19:00 +20°C° 0 mm 2 m/s 739 mmHg 54%
    20:00 +20°C° 0 mm 2 m/s 739 mmHg 52%
    21:00 +20°C° 0 mm 2 m/s 739 mmHg 51%
    22:00 +19°C° 0 mm 2 m/s 740 mmHg 49%
    23:00 +19°C° 0 mm 2 m/s 740 mmHg 47%

    Demain, 24 Août, Jeudi

    Heure Température Précipitation Vent Pression Humidité
    00:00 +19°C° 0 mm 2 m/s 740 mmHg 46%
    01:00 +18°C° 0 mm 2 m/s 740 mmHg 44%
    02:00 +18°C° 0 mm 2 m/s 740 mmHg 45%
    03:00 +18°C° 0 mm 2 m/s 740 mmHg 45%
    04:00 +18°C° 0 mm 2 m/s 739 mmHg 45%
    05:00 +19°C° 0 mm 2 m/s 740 mmHg 43%
    06:00 +21°C° 0 mm 2 m/s 740 mmHg 41%
    07:00 +24°C° 0 mm 2 m/s 740 mmHg 39%
    08:00 +26°C° 0 mm 2 m/s 740 mmHg 35%
    09:00 +29°C° 0 mm 1 m/s 740 mmHg 30%
    10:00 +31°C° 0 mm 1 m/s 741 mmHg 25%
    11:00 +32°C° 0 mm 2 m/s 740 mmHg 25%
    12:00 +33°C° 0 mm 3 m/s 740 mmHg 24%
    13:00 +34°C° 0 mm 3 m/s 740 mmHg 23%
    14:00 +34°C° 0 mm 3 m/s 740 mmHg 25%
    15:00 +33°C° 0 mm 4 m/s 739 mmHg 26%
    16:00 +33°C° 0 mm 4 m/s 739 mmHg 28%
    17:00 +29°C° 0 mm 3 m/s 739 mmHg 34%
    18:00 +26°C° 0 mm 2 m/s 739 mmHg 41%
    19:00 +24°C° 0 mm 2 m/s 740 mmHg 48%
    20:00 +23°C° 0 mm 2 m/s 740 mmHg 47%
    21:00 +23°C° 0 mm 2 m/s 740 mmHg 46%
    22:00 +23°C° 0 mm 2 m/s 741 mmHg 44%
    23:00 +21°C° 0 mm 2 m/s 741 mmHg 44%

    Après-demain, 25 Août, Vendredi

    Heure Température Précipitation Vent Pression Humidité
    00:00 +21°C° 0 mm 2 m/s 741 mmHg 44%
    01:00 +21°C° 0 mm 2 m/s 741 mmHg 44%
    02:00 +20°C° 0 mm 2 m/s 741 mmHg 45%
    03:00 +20°C° 0 mm 2 m/s 740 mmHg 45%
    04:00 +20°C° 0 mm 2 m/s 740 mmHg 46%
    05:00 +23°C° 0 mm 2 m/s 740 mmHg 44%
    06:00 +24°C° 0 mm 2 m/s 741 mmHg 42%
    07:00 +26°C° 0 mm 2 m/s 741 mmHg 40%
    08:00 +28°C° 0 mm 2 m/s 741 mmHg 35%
    09:00 +31°C° 0 mm 2 m/s 741 mmHg 30%
    10:00 +33°C° 0 mm 1 m/s 741 mmHg 25%
    11:00 +35°C° 0 mm 2 m/s 740 mmHg 23%
    12:00 +36°C° 0 mm 3 m/s 740 mmHg 21%
    13:00 +36°C° 0 mm 3 m/s 740 mmHg 20%
    14:00 +36°C° 0 mm 3 m/s 739 mmHg 21%
    15:00 +36°C° 0 mm 4 m/s 739 mmHg 22%
    16:00 +35°C° 0 mm 4 m/s 739 mmHg 23%
    17:00 +31°C° 0 mm 3 m/s 739 mmHg 29%
    18:00 +28°C° 0 mm 2 m/s 739 mmHg 34%
    19:00 +25°C° 0 mm 2 m/s 739 mmHg 40%
    20:00 +25°C° 0 mm 2 m/s 739 mmHg 38%
    21:00 +25°C° 0 mm 2 m/s 739 mmHg 37%
    22:00 +24°C° 0 mm 2 m/s 740 mmHg 35%
    23:00 +24°C° 0 mm 2 m/s 739 mmHg 34%

    26 Août, Samedi

    Heure Température Précipitation Vent Pression Humidité
    00:00 +23°C° 0 mm 2 m/s 739 mmHg 34%
    01:00 +23°C° 0 mm 2 m/s 739 mmHg 33%
    02:00 +23°C° 0 mm 2 m/s 739 mmHg 34%
    03:00 +21°C° 0 mm 2 m/s 739 mmHg 34%
    04:00 +21°C° 0 mm 2 m/s 739 mmHg 35%
    05:00 +24°C° 0 mm 2 m/s 739 mmHg 34%
    06:00 +25°C° 0 mm 2 m/s 739 mmHg 34%
    07:00 +27°C° 0 mm 2 m/s 739 mmHg 33%
    08:00 +29°C° 0 mm 2 m/s 739 mmHg 29%
    09:00 +32°C° 0 mm 1 m/s 739 mmHg 24%
    10:00 +34°C° 0 mm 1 m/s 739 mmHg 20%
    11:00 +36°C° 0 mm 2 m/s 739 mmHg 19%
    12:00 +37°C° 0 mm 3 m/s 739 mmHg 18%
    13:00 +38°C° 0 mm 3 m/s 738 mmHg 17%
    14:00 +37°C° 0 mm 3 m/s 738 mmHg 18%
    15:00 +37°C° 0 mm 3 m/s 738 mmHg 19%
    16:00 +36°C° 0 mm 3 m/s 738 mmHg 21%
    17:00 +33°C° 0 mm 3 m/s 738 mmHg 26%
    18:00 +29°C° 0 mm 2 m/s 738 mmHg 32%
    19:00 +26°C° 0 mm 1 m/s 738 mmHg 37%
    20:00 +26°C° 0 mm 1 m/s 738 mmHg 35%
    21:00 +25°C° 0 mm 2 m/s 738 mmHg 33%
    22:00 +25°C° 0 mm 2 m/s 738 mmHg 30%
    23:00 +24°C° 0 mm 2 m/s 738 mmHg 29%

    27 Août, Dimanche

    Heure Température Précipitation Vent Pression Humidité
    00:00 +24°C° 0 mm 2 m/s 738 mmHg 28%
    01:00 +24°C° 0 mm 2 m/s 738 mmHg 27%
    02:00 +23°C° 0 mm 2 m/s 738 mmHg 28%
    03:00 +23°C° 0 mm 2 m/s 738 mmHg 28%
    04:00 +23°C° 0 mm 2 m/s 738 mmHg 29%
    05:00 +25°C° 0 mm 2 m/s 738 mmHg 29%
    06:00 +26°C° 0 mm 2 m/s 738 mmHg 29%
    07:00 +28°C° 0 mm 2 m/s 738 mmHg 28%
    08:00 +30°C° 0 mm 2 m/s 738 mmHg 25%
    09:00 +33°C° 0 mm 1 m/s 738 mmHg 21%
    10:00 +35°C° 0 mm 1 m/s 738 mmHg 18%
    11:00 +37°C° 0 mm 2 m/s 738 mmHg 17%
    12:00 +38°C° 0 mm 3 m/s 737 mmHg 16%
    13:00 +38°C° 0 mm 3 m/s 737 mmHg 16%
    14:00 +38°C° 0 mm 3 m/s 737 mmHg 17%
    15:00 +37°C° 0 mm 3 m/s 736 mmHg 19%
    16:00 +36°C° 0 mm 3 m/s 736 mmHg 20%
    17:00 +33°C° 0 mm 3 m/s 736 mmHg 27%
    18:00 +29°C° 0 mm 2 m/s 736 mmHg 34%
    19:00 +26°C° 0 mm 1 m/s 736 mmHg 40%
    20:00 +26°C° 0 mm 1 m/s 736 mmHg 38%
    21:00 +25°C° 0 mm 1 m/s 737 mmHg 36%
    22:00 +25°C° 0 mm 1 m/s 737 mmHg 34%
    23:00 +25°C° 0 mm 1 m/s 737 mmHg 33%

    28 Août, Lundi

    Heure Température Précipitation Vent Pression Humidité
    00:00 +25°C° 0 mm 1 m/s 737 mmHg 31%
    01:00 +24°C° 0 mm 1 m/s 736 mmHg 30%
    02:00 +24°C° 0 mm 1 m/s 736 mmHg 29%
    03:00 +24°C° 0 mm 1 m/s 736 mmHg 29%
    04:00 +24°C° 0 mm 1 m/s 736 mmHg 29%
    05:00 +25°C° 0 mm 1 m/s 736 mmHg 29%
    06:00 +27°C° 0 mm 1 m/s 737 mmHg 28%
    07:00 +29°C° 0 mm 1 m/s 737 mmHg 27%
    08:00 +31°C° 0 mm 1 m/s 737 mmHg 24%
    09:00 +33°C° 0 mm 1 m/s 737 mmHg 22%
    10:00 +36°C° 0 mm 1 m/s 736 mmHg 19%
    11:00 +37°C° 0 mm 2 m/s 736 mmHg 19%
    12:00 +38°C° 0 mm 3 m/s 736 mmHg 19%
    13:00 +38°C° 0 mm 3 m/s 735 mmHg 18%
    14:00 +38°C° 0 mm 3 m/s 735 mmHg 21%
    15:00 +37°C° 0 mm 3 m/s 735 mmHg 23%
    16:00 +36°C° 0 mm 3 m/s 735 mmHg 26%
    17:00 +33°C° 0 mm 3 m/s 735 mmHg 33%
    18:00 +29°C° 0 mm 2 m/s 735 mmHg 41%
    19:00 +27°C° 0 mm 1 m/s 735 mmHg 48%
    20:00 +26°C° 0 mm 1 m/s 735 mmHg 47%
    21:00 +26°C° 0 mm 1 m/s 735 mmHg 46%
    22:00 +26°C° 0 mm 1 m/s 736 mmHg 44%
    23:00 +26°C° 0 mm 1 m/s 736 mmHg 43%
    Voir plus